Time,TemperatureF,DewpointF,PressureIn,WindDirection,WindDirectionDegrees,WindSpeedMPH,WindSpeedGustMPH,Humidity,HourlyPrecipIn,Conditions,Clouds,dailyrainin,SoftwareType,DateUTC
2013-05-08 00:02:00,71.0,-99.9,30.04,West,264,7.0,9.0,-999,-99.99,,,-99.99,,2013-05-08 04:02:00,
2013-05-08 00:13:00,71.0,-99.9,30.04,West,260,8.0,10.0,-999,-99.99,,,-99.99,,2013-05-08 04:13:00,
2013-05-08 00:23:00,71.0,-99.9,30.04,West,262,8.0,10.0,-999,-99.99,,,-99.99,,2013-05-08 04:23:00,
2013-05-08 00:33:00,71.0,-99.9,30.04,West,261,6.0,9.0,-999,-99.99,,,-99.99,,2013-05-08 04:33:00,
2013-05-08 00:43:00,70.0,-99.9,30.04,West,261,7.0,8.0,-999,-99.99,,,-99.99,,2013-05-08 04:43:00,
2013-05-08 00:53:00,70.0,-99.9,30.04,West,261,6.0,8.0,-999,-99.99,,,-99.99,,2013-05-08 04:53:00,
2013-05-08 01:03:00,70.0,-99.9,30.05,WSW,258,6.0,8.0,-999,-99.99,,,-99.99,,2013-05-08 05:03:00,
2013-05-08 01:12:00,70.0,-99.9,30.04,West,260,5.0,8.0,-999,-99.99,,,-99.99,,2013-05-08 05:12:00,
2013-05-08 01:22:00,69.0,-99.9,30.04,WSW,254,7.0,9.0,-999,-99.99,,,-99.99,,2013-05-08 05:22:00,
2013-05-08 01:32:00,69.0,-99.9,30.04,WSW,255,7.0,10.0,-999,-99.99,,,-99.99,,2013-05-08 05:32:00,
2013-05-08 01:42:00,69.0,-99.9,30.04,WSW,257,7.0,9.0,-999,-99.99,,,-99.99,,2013-05-08 05:42:00,
2013-05-08 01:52:00,68.0,-99.9,30.03,West,260,7.0,9.0,-999,-99.99,,,-99.99,,2013-05-08 05:52:00,
2013-05-08 02:02:00,68.0,-99.9,30.03,West,260,6.0,9.0,-999,-99.99,,,-99.99,,2013-05-08 06:02:00,
2013-05-08 02:12:00,68.0,-99.9,30.03,West,265,6.0,8.0,-999,-99.99,,,-99.99,,2013-05-08 06:12:00,
2013-05-08 02:22:00,68.0,-99.9,30.02,West,262,6.0,8.0,-999,-99.99,,,-99.99,,2013-05-08 06:22:00,
2013-05-08 02:32:00,67.0,-99.9,30.02,West,259,6.0,8.0,-999,-99.99,,,-99.99,,2013-05-08 06:32:00,
2013-05-08 02:42:00,67.0,-99.9,30.02,West,264,7.0,9.0,-999,-99.99,,,-99.99,,2013-05-08 06:42:00,
2013-05-08 02:52:00,67.0,-99.9,30.02,West,261,6.0,9.0,-999,-99.99,,,-99.99,,2013-05-08 06:52:00,
2013-05-08 03:02:00,67.0,-99.9,30.02,West,267,5.0,8.0,-999,-99.99,,,-99.99,,2013-05-08 07:02:00,
2013-05-08 03:11:00,67.0,-99.9,30.02,West,261,5.0,6.0,-999,-99.99,,,-99.99,,2013-05-08 07:11:00,
2013-05-08 03:22:00,66.0,-99.9,30.02,West,261,6.0,8.0,-999,-99.99,,,-99.99,,2013-05-08 07:22:00,
2013-05-08 03:32:00,66.0,-99.9,30.02,West,263,5.0,7.0,-999,-99.99,,,-99.99,,2013-05-08 07:32:00,
2013-05-08 03:42:00,66.0,-99.9,30.02,WSW,254,5.0,7.0,-999,-99.99,,,-99.99,,2013-05-08 07:42:00,
2013-05-08 03:52:00,66.0,-99.9,30.02,West,263,6.0,8.0,-999,-99.99,,,-99.99,,2013-05-08 07:52:00,
2013-05-08 04:02:00,65.0,-99.9,30.02,West,261,6.0,7.0,-999,-99.99,,,-99.99,,2013-05-08 08:02:00,
2013-05-08 04:12:00,65.0,-99.9,30.03,West,263,6.0,8.0,-999,-99.99,,,-99.99,,2013-05-08 08:12:00,
2013-05-08 04:22:00,65.0,-99.9,30.03,West,261,6.0,9.0,-999,-99.99,,,-99.99,,2013-05-08 08:22:00,
2013-05-08 04:32:00,65.0,-99.9,30.03,WSW,255,6.0,8.0,-999,-99.99,,,-99.99,,2013-05-08 08:32:00,
2013-05-08 04:43:00,65.0,-99.9,30.03,WSW,255,6.0,8.0,-999,-99.99,,,-99.99,,2013-05-08 08:43:00,
2013-05-08 04:52:00,65.0,-99.9,30.03,West,262,6.0,9.0,-999,-99.99,,,-99.99,,2013-05-08 08:52:00,
2013-05-08 05:02:00,65.0,-99.9,30.03,West,263,5.0,8.0,-999,-99.99,,,-99.99,,2013-05-08 09:02:00,
2013-05-08 05:11:00,64.0,-99.9,30.03,West,263,6.0,7.0,-999,-99.99,,,-99.99,,2013-05-08 09:11:00,
2013-05-08 05:22:00,64.0,-99.9,30.04,West,259,6.0,7.0,-999,-99.99,,,-99.99,,2013-05-08 09:22:00,
2013-05-08 05:32:00,64.0,-99.9,30.04,West,261,5.0,7.0,-999,-99.99,,,-99.99,,2013-05-08 09:32:00,
2013-05-08 05:42:00,64.0,-99.9,30.04,West,259,5.0,7.0,-999,-99.99,,,-99.99,,2013-05-08 09:42:00,
2013-05-08 05:53:00,64.0,-99.9,30.04,West,262,5.0,7.0,-999,-99.99,,,-99.99,,2013-05-08 09:53:00,
2013-05-08 06:03:00,64.0,-99.9,30.05,WSW,258,5.0,6.0,-999,-99.99,,,-99.99,,2013-05-08 10:03:00,
2013-05-08 06:12:00,64.0,-99.9,30.05,WSW,257,5.0,7.0,-999,-99.99,,,-99.99,,2013-05-08 10:12:00,
2013-05-08 06:23:00,64.0,-99.9,30.05,WSW,256,5.0,7.0,-999,-99.99,,,-99.99,,2013-05-08 10:23:00,
2013-05-08 06:33:00,64.0,-99.9,30.05,West,266,5.0,7.0,-999,-99.99,,,-99.99,,2013-05-08 10:33:00,
2013-05-08 06:42:00,64.0,-99.9,30.06,West,260,5.0,7.0,-999,-99.99,,,-99.99,,2013-05-08 10:42:00,
2013-05-08 06:53:00,64.0,-99.9,30.06,West,264,5.0,6.0,-999,-99.99,,,-99.99,,2013-05-08 10:53:00,
2013-05-08 07:02:00,64.0,-99.9,30.06,West,263,5.0,8.0,-999,-99.99,,,-99.99,,2013-05-08 11:02:00,
2013-05-08 07:12:00,64.0,-99.9,30.07,West,265,5.0,7.0,-999,-99.99,,,-99.99,,2013-05-08 11:12:00,
2013-05-08 07:22:00,64.0,-99.9,30.07,WSW,257,5.0,6.0,-999,-99.99,,,-99.99,,2013-05-08 11:22:00,
2013-05-08 07:33:00,64.0,-99.9,30.07,WSW,257,6.0,7.0,-999,-99.99,,,-99.99,,2013-05-08 11:33:00,
2013-05-08 07:42:00,64.0,-99.9,30.08,WSW,254,5.0,6.0,-999,-99.99,,,-99.99,,2013-05-08 11:42:00,
2013-05-08 07:52:00,65.0,-99.9,30.08,WSW,250,4.0,6.0,-999,-99.99,,,-99.99,,2013-05-08 11:52:00,
2013-05-08 08:02:00,65.0,-99.9,30.08,WSW,254,5.0,6.0,-999,-99.99,,,-99.99,,2013-05-08 12:02:00,
2013-05-08 08:11:00,65.0,-99.9,30.09,WSW,251,5.0,6.0,-999,-99.99,,,-99.99,,2013-05-08 12:11:00,
2013-05-08 08:22:00,66.0,-99.9,30.09,WSW,252,5.0,6.0,-999,-99.99,,,-99.99,,2013-05-08 12:22:00,
2013-05-08 08:32:00,67.0,-99.9,30.09,WSW,253,5.0,5.0,-999,-99.99,,,-99.99,,2013-05-08 12:32:00,
2013-05-08 08:42:00,68.0,-99.9,30.09,West,260,4.0,6.0,-999,-99.99,,,-99.99,,2013-05-08 12:42:00,
2013-05-08 08:52:00,69.0,-99.9,30.10,WNW,294,5.0,7.0,-999,-99.99,,,-99.99,,2013-05-08 12:52:00,
2013-05-08 09:01:00,69.0,-99.9,30.10,WNW,302,6.0,8.0,-999,-99.99,,,-99.99,,2013-05-08 13:01:00,
2013-05-08 09:12:00,70.0,-99.9,30.10,NW,307,5.0,8.0,-999,-99.99,,,-99.99,,2013-05-08 13:12:00,
2013-05-08 09:22:00,70.0,-99.9,30.11,NW,306,7.0,9.0,-999,-99.99,,,-99.99,,2013-05-08 13:22:00,
2013-05-08 09:32:00,71.0,-99.9,30.11,WNW,287,4.0,6.0,-999,-99.99,,,-99.99,,2013-05-08 13:32:00,
2013-05-08 09:42:00,71.0,-99.9,30.11,West,277,4.0,5.0,-999,-99.99,,,-99.99,,2013-05-08 13:42:00,
2013-05-08 09:52:00,71.0,-99.9,30.11,West,261,4.0,6.0,-999,-99.99,,,-99.99,,2013-05-08 13:52:00,
2013-05-08 10:02:00,72.0,-99.9,30.11,West,268,3.0,6.0,-999,-99.99,,,-99.99,,2013-05-08 14:02:00,
2013-05-08 10:12:00,72.0,-99.9,30.11,West,262,4.0,5.0,-999,-99.99,,,-99.99,,2013-05-08 14:12:00,
2013-05-08 10:22:00,72.0,-99.9,30.11,SSW,199,2.0,4.0,-999,-99.99,,,-99.99,,2013-05-08 14:22:00,
2013-05-08 10:32:00,73.0,-99.9,30.12,West,270,1.0,5.0,-999,-99.99,,,-99.99,,2013-05-08 14:32:00,
2013-05-08 10:42:00,73.0,-99.9,30.12,South,182,2.0,3.0,-999,-99.99,,,-99.99,,2013-05-08 14:42:00,
2013-05-08 10:52:00,73.0,-99.9,30.11,SSW,198,3.0,3.0,-999,-99.99,,,-99.99,,2013-05-08 14:52:00,
2013-05-08 11:02:00,74.0,-99.9,30.12,West,272,2.0,4.0,-999,-99.99,,,-99.99,,2013-05-08 15:02:00,
2013-05-08 11:11:00,74.0,-99.9,30.12,SW,228,4.0,7.0,-999,-99.99,,,-99.99,,2013-05-08 15:11:00,
2013-05-08 11:22:00,74.0,-99.9,30.12,SW,220,3.0,7.0,-999,-99.99,,,-99.99,,2013-05-08 15:22:00,
2013-05-08 11:33:00,74.0,-99.9,30.11,South,188,5.0,8.0,-999,-99.99,,,-99.99,,2013-05-08 15:33:00,
2013-05-08 11:42:00,73.0,-99.9,30.11,SSE,154,6.0,7.0,-999,-99.99,,,-99.99,,2013-05-08 15:42:00,
2013-05-08 11:53:00,73.0,-99.9,30.11,SE,131,6.0,8.0,-999,-99.99,,,-99.99,,2013-05-08 15:53:00,
2013-05-08 12:03:00,73.0,-99.9,30.11,SE,131,5.0,7.0,-999,-99.99,,,-99.99,,2013-05-08 16:03:00,
2013-05-08 12:13:00,73.0,-99.9,30.11,SE,140,7.0,8.0,-999,-99.99,,,-99.99,,2013-05-08 16:13:00,
2013-05-08 12:23:00,73.0,-99.9,30.11,SE,143,4.0,7.0,-999,-99.99,,,-99.99,,2013-05-08 16:23:00,
2013-05-08 12:33:00,74.0,-99.9,30.11,ESE,113,4.0,5.0,-999,-99.99,,,-99.99,,2013-05-08 16:33:00,
2013-05-08 12:42:00,74.0,-99.9,30.10,ESE,121,5.0,6.0,-999,-99.99,,,-99.99,,2013-05-08 16:42:00,
2013-05-08 12:52:00,73.0,-99.9,30.10,SE,128,6.0,7.0,-999,-99.99,,,-99.99,,2013-05-08 16:52:00,
2013-05-08 13:02:00,74.0,-99.9,30.10,SE,125,6.0,7.0,-999,-99.99,,,-99.99,,2013-05-08 17:02:00,
2013-05-08 13:12:00,74.0,-99.9,30.10,SE,133,5.0,6.0,-999,-99.99,,,-99.99,,2013-05-08 17:12:00,
2013-05-08 13:22:00,74.0,-99.9,30.10,ESE,122,7.0,9.0,-999,-99.99,,,-99.99,,2013-05-08 17:22:00,
2013-05-08 13:32:00,74.0,-99.9,30.10,ESE,122,7.0,9.0,-999,-99.99,,,-99.99,,2013-05-08 17:32:00,
2013-05-08 13:42:00,74.0,-99.9,30.10,ESE,122,7.0,9.0,-999,-99.99,,,-99.99,,2013-05-08 17:42:00,
2013-05-08 13:52:00,74.0,-99.9,30.09,SE,125,7.0,10.0,-999,-99.99,,,-99.99,,2013-05-08 17:52:00,
2013-05-08 14:02:00,74.0,-99.9,30.09,ESE,112,9.0,11.0,-999,-99.99,,,-99.99,,2013-05-08 18:02:00,
2013-05-08 14:12:00,74.0,-99.9,30.09,SE,127,9.0,11.0,-999,-99.99,,,-99.99,,2013-05-08 18:12:00,
2013-05-08 14:22:00,74.0,-99.9,30.08,SE,124,10.0,11.0,-999,-99.99,,,-99.99,,2013-05-08 18:22:00,
2013-05-08 14:32:00,74.0,-99.9,30.08,ESE,123,9.0,10.0,-999,-99.99,,,-99.99,,2013-05-08 18:32:00,
2013-05-08 14:42:00,74.0,-99.9,30.08,SE,140,11.0,12.0,-999,-99.99,,,-99.99,,2013-05-08 18:42:00,
2013-05-08 14:52:00,74.0,-99.9,30.08,SE,128,10.0,13.0,-999,-99.99,,,-99.99,,2013-05-08 18:52:00,
2013-05-08 15:02:00,75.0,-99.9,30.08,SE,130,9.0,11.0,-999,-99.99,,,-99.99,,2013-05-08 19:02:00,
2013-05-08 15:11:00,75.0,-99.9,30.07,SE,141,9.0,11.0,-999,-99.99,,,-99.99,,2013-05-08 19:11:00,
2013-05-08 15:22:00,75.0,-99.9,30.07,SE,137,11.0,12.0,-999,-99.99,,,-99.99,,2013-05-08 19:22:00,
2013-05-08 15:32:00,75.0,-99.9,30.07,SE,144,10.0,11.0,-999,-99.99,,,-99.99,,2013-05-08 19:32:00,
2013-05-08 15:42:00,75.0,-99.9,30.06,SE,134,11.0,12.0,-999,-99.99,,,-99.99,,2013-05-08 19:42:00,
2013-05-08 15:52:00,75.0,-99.9,30.06,SE,138,10.0,12.0,-999,-99.99,,,-99.99,,2013-05-08 19:52:00,
2013-05-08 16:02:00,75.0,-99.9,30.06,SE,135,9.0,11.0,-999,-99.99,,,-99.99,,2013-05-08 20:02:00,
2013-05-08 16:12:00,75.0,-99.9,30.06,SSE,148,10.0,11.0,-999,-99.99,,,-99.99,,2013-05-08 20:12:00,
2013-05-08 16:22:00,75.0,-99.9,30.06,SE,146,9.0,11.0,-999,-99.99,,,-99.99,,2013-05-08 20:22:00,
2013-05-08 16:32:00,75.0,-99.9,30.05,SSE,148,10.0,11.0,-999,-99.99,,,-99.99,,2013-05-08 20:32:00,
2013-05-08 16:42:00,76.0,-99.9,30.05,SSE,148,11.0,13.0,-999,-99.99,,,-99.99,,2013-05-08 20:42:00,
2013-05-08 16:52:00,76.0,-99.9,30.05,SSE,159,11.0,12.0,-999,-99.99,,,-99.99,,2013-05-08 20:52:00,
2013-05-08 17:02:00,76.0,-99.9,30.05,SSE,153,10.0,11.0,-999,-99.99,,,-99.99,,2013-05-08 21:02:00,
2013-05-08 17:12:00,76.0,-99.9,30.05,SSE,156,12.0,13.0,-999,-99.99,,,-99.99,,2013-05-08 21:12:00,
2013-05-08 17:22:00,76.0,-99.9,30.05,SE,145,10.0,12.0,-999,-99.99,,,-99.99,,2013-05-08 21:22:00,
2013-05-08 17:33:00,76.0,-99.9,30.05,SSE,156,11.0,13.0,-999,-99.99,,,-99.99,,2013-05-08 21:33:00,
2013-05-08 17:43:00,77.0,-99.9,30.05,SSE,156,10.0,12.0,-999,-99.99,,,-99.99,,2013-05-08 21:43:00,
2013-05-08 17:53:00,76.0,-99.9,30.05,SE,146,10.0,11.0,-999,-99.99,,,-99.99,,2013-05-08 21:53:00,
2013-05-08 18:03:00,77.0,-99.9,30.05,SSE,148,9.0,12.0,-999,-99.99,,,-99.99,,2013-05-08 22:03:00,
2013-05-08 18:12:00,77.0,-99.9,30.05,SE,143,10.0,11.0,-999,-99.99,,,-99.99,,2013-05-08 22:12:00,
2013-05-08 18:22:00,77.0,-99.9,30.05,SSE,152,9.0,12.0,-999,-99.99,,,-99.99,,2013-05-08 22:22:00,
2013-05-08 18:33:00,77.0,-99.9,30.05,SSE,148,9.0,9.0,-999,-99.99,,,-99.99,,2013-05-08 22:33:00,
2013-05-08 18:42:00,77.0,-99.9,30.05,SSE,152,9.0,10.0,-999,-99.99,,,-99.99,,2013-05-08 22:42:00,
2013-05-08 18:53:00,77.0,-99.9,30.05,SE,139,9.0,9.0,-999,-99.99,,,-99.99,,2013-05-08 22:53:00,
2013-05-08 19:02:00,77.0,-99.9,30.04,SE,140,10.0,11.0,-999,-99.99,,,-99.99,,2013-05-08 23:02:00,
2013-05-08 19:12:00,77.0,-99.9,30.04,SE,141,9.0,10.0,-999,-99.99,,,-99.99,,2013-05-08 23:12:00,
2013-05-08 19:22:00,77.0,-99.9,30.04,SE,145,8.0,11.0,-999,-99.99,,,-99.99,,2013-05-08 23:22:00,
2013-05-08 19:33:00,77.0,-99.9,30.05,SSE,150,9.0,10.0,-999,-99.99,,,-99.99,,2013-05-08 23:33:00,
2013-05-08 19:42:00,77.0,-99.9,30.04,SE,141,9.0,11.0,-999,-99.99,,,-99.99,,2013-05-08 23:42:00,
2013-05-08 19:53:00,77.0,-99.9,30.04,SSE,149,9.0,10.0,-999,-99.99,,,-99.99,,2013-05-08 23:53:00,
2013-05-08 20:02:00,77.0,-99.9,30.05,SE,146,9.0,10.0,-999,-99.99,,,-99.99,,2013-05-09 00:02:00,
2013-05-08 20:12:00,78.0,-99.9,30.05,SSE,159,8.0,10.0,-999,-99.99,,,-99.99,,2013-05-09 00:12:00,
2013-05-08 20:21:00,77.0,-99.9,30.05,SSE,153,9.0,10.0,-999,-99.99,,,-99.99,,2013-05-09 00:21:00,
2013-05-08 20:32:00,78.0,-99.9,30.05,SSE,158,9.0,10.0,-999,-99.99,,,-99.99,,2013-05-09 00:32:00,
2013-05-08 20:42:00,78.0,-99.9,30.06,SSE,149,8.0,9.0,-999,-99.99,,,-99.99,,2013-05-09 00:42:00,
2013-05-08 20:52:00,78.0,-99.9,30.06,SSE,149,9.0,11.0,-999,-99.99,,,-99.99,,2013-05-09 00:52:00,
2013-05-08 21:02:00,78.0,-99.9,30.06,SSE,160,9.0,11.0,-999,-99.99,,,-99.99,,2013-05-09 01:02:00,
2013-05-08 21:12:00,78.0,-99.9,30.06,SSE,163,10.0,11.0,-999,-99.99,,,-99.99,,2013-05-09 01:12:00,
2013-05-08 21:22:00,78.0,-99.9,30.06,SSE,159,9.0,12.0,-999,-99.99,,,-99.99,,2013-05-09 01:22:00,
2013-05-08 21:32:00,78.0,-99.9,30.07,SSE,150,10.0,11.0,-999,-99.99,,,-99.99,,2013-05-09 01:32:00,
2013-05-08 21:42:00,78.0,-99.9,30.08,SSE,157,10.0,11.0,-999,-99.99,,,-99.99,,2013-05-09 01:42:00,
2013-05-08 21:53:00,78.0,-99.9,30.08,SSE,158,10.0,11.0,-999,-99.99,,,-99.99,,2013-05-09 01:53:00,
2013-05-08 22:02:00,78.0,-99.9,30.09,SSE,163,11.0,11.0,-999,-99.99,,,-99.99,,2013-05-09 02:02:00,
2013-05-08 22:12:00,78.0,-99.9,30.09,SSE,165,11.0,12.0,-999,-99.99,,,-99.99,,2013-05-09 02:12:00,
2013-05-08 22:22:00,78.0,-99.9,30.09,SSE,167,10.0,12.0,-999,-99.99,,,-99.99,,2013-05-09 02:22:00,
2013-05-08 22:33:00,78.0,-99.9,30.09,South,169,11.0,12.0,-999,-99.99,,,-99.99,,2013-05-09 02:33:00,
2013-05-08 22:42:00,78.0,-99.9,30.09,South,169,11.0,12.0,-999,-99.99,,,-99.99,,2013-05-09 02:42:00,
2013-05-08 22:52:00,78.0,-99.9,30.09,South,169,11.0,12.0,-999,-99.99,,,-99.99,,2013-05-09 02:52:00,
2013-05-08 23:02:00,78.0,-99.9,30.10,SSW,196,9.0,12.0,-999,-99.99,,,-99.99,,2013-05-09 03:02:00,
2013-05-08 23:11:00,78.0,-99.9,30.10,SSW,201,6.0,9.0,-999,-99.99,,,-99.99,,2013-05-09 03:11:00,
2013-05-08 23:22:00,77.0,-99.9,30.10,SSW,195,6.0,9.0,-999,-99.99,,,-99.99,,2013-05-09 03:22:00,
2013-05-08 23:33:00,77.0,-99.9,30.10,SSW,199,6.0,9.0,-999,-99.99,,,-99.99,,2013-05-09 03:33:00,
2013-05-08 23:43:00,77.0,-99.9,30.10,SSW,194,8.0,10.0,-999,-99.99,,,-99.99,,2013-05-09 03:43:00,
2013-05-08 23:53:00,77.0,-99.9,30.10,South,190,8.0,10.0,-999,-99.99,,,-99.99,,2013-05-09 03:53:00,